Location: PSU-Greenbush Astrophysical Observatory
(37.5140°N, 94.9880°W)
Time: 01:05:37
(UTC-06:00)

deb Explorer IX - Pass Details

Date: 02 February 2020
Orbit: 549 x 1099 km, 38.8° (Epoch: 20 February)

Event Time Altitude Azimuth Distance (km) Brightness Sun altitude
Rises 17:08:55 0° 212° (SSW) 3,075 ? 5.7°
Reaches altitude 10° 17:11:29 10° 200° (SSW) 2,248 ? 5.2°
Maximum altitude 17:15:54 27° 143° (SE) 1,535 ? 4.4°
Drops below altitude 10° 17:20:54 10° 89° (E) 2,579 ? 3.5°
Sets 17:24:03 0° 78° (ENE) 3,623 ? 3.0°
